When you browse on this site, cookies collect data to enhance your experience and personalize the content and advertising you see.
Visit our Privacy Policy to learn more. By continuing to use the site, you agree to this use of cookies and data.
  • In United Kingdom
  • List of Countries
  • For 7 days
  • Water Temperature
  • Satellite Maps
  • Weather Map
  • Weather Widgets
  • user-avatar
    Login

    Hourly Weather Eisenstadt

    Today, 23 April, Tuesday

    Time Temperature Precipitation Wind Pressure Humidity
    00:00 +9°C° 0 mm 2 mps 718 mmHg 87%
    01:00 +9°C° 0 mm 1 mps 718 mmHg 88%
    02:00 +8°C° 0.1 mm 2 mps 718 mmHg 89%
    03:00 +9°C° 0.1 mm 2 mps 718 mmHg 90%
    04:00 +9°C° 0.1 mm 2 mps 718 mmHg 91%
    05:00 +9°C° 0.1 mm 2 mps 717 mmHg 90%
    06:00 +9°C° 0.1 mm 3 mps 717 mmHg 89%
    07:00 +8°C° 0 mm 2 mps 718 mmHg 83%
    08:00 +9°C° 0.4 mm 2 mps 718 mmHg 84%
    09:00 +9°C° 0.4 mm 3 mps 718 mmHg 85%
    10:00 +10°C° 0.4 mm 3 mps 718 mmHg 86%
    11:00 +10°C° 0.5 mm 4 mps 718 mmHg 88%
    12:00 +10°C° 0.5 mm 4 mps 718 mmHg 90%
    13:00 +9°C° 0.5 mm 5 mps 718 mmHg 91%
    14:00 +9°C° 0.7 mm 5 mps 718 mmHg 92%
    15:00 +9°C° 0.7 mm 5 mps 718 mmHg 93%
    16:00 +8°C° 0.7 mm 5 mps 717 mmHg 93%
    17:00 +8°C° 1 mm 4 mps 717 mmHg 94%
    18:00 +9°C° 1 mm 3 mps 717 mmHg 94%
    19:00 +8°C° 1 mm 2 mps 717 mmHg 95%
    20:00 +9°C° 0.3 mm 1 mps 717 mmHg 95%
    21:00 +9°C° 0.3 mm 1 mps 717 mmHg 95%
    22:00 +9°C° 0.3 mm 1 mps 717 mmHg 95%
    23:00 +9°C° 0.1 mm 2 mps 717 mmHg 96%

    Tomorrow, 24 April, Wednesday

    Time Temperature Precipitation Wind Pressure Humidity
    00:00 +10°C° 0.1 mm 3 mps 717 mmHg 96%
    01:00 +10°C° 0.1 mm 4 mps 717 mmHg 96%
    02:00 +10°C° 0 mm 4 mps 717 mmHg 96%
    03:00 +10°C° 0 mm 4 mps 717 mmHg 95%
    04:00 +9°C° 0 mm 5 mps 717 mmHg 95%
    05:00 +10°C° 0 mm 5 mps 717 mmHg 93%
    06:00 +10°C° 0 mm 6 mps 718 mmHg 91%
    07:00 +11°C° 0 mm 6 mps 718 mmHg 89%
    08:00 +13°C° 0 mm 6 mps 718 mmHg 83%
    09:00 +15°C° 0 mm 7 mps 719 mmHg 77%
    10:00 +16°C° 0 mm 7 mps 719 mmHg 71%
    11:00 +17°C° 0 mm 7 mps 719 mmHg 66%
    12:00 +20°C° 0 mm 8 mps 719 mmHg 60%
    13:00 +21°C° 0 mm 8 mps 719 mmHg 54%
    14:00 +21°C° 0 mm 8 mps 719 mmHg 53%
    15:00 +21°C° 0 mm 8 mps 719 mmHg 52%
    16:00 +21°C° 0 mm 8 mps 719 mmHg 51%
    17:00 +20°C° 0 mm 8 mps 719 mmHg 56%
    18:00 +17°C° 0 mm 7 mps 719 mmHg 61%
    19:00 +15°C° 0 mm 7 mps 719 mmHg 66%
    20:00 +15°C° 0 mm 7 mps 719 mmHg 66%
    21:00 +15°C° 0 mm 7 mps 719 mmHg 66%
    22:00 +14°C° 0 mm 7 mps 720 mmHg 67%
    23:00 +14°C° 0 mm 7 mps 720 mmHg 69%

    Day after tomorrow, 25 April, Thursday

    Time Temperature Precipitation Wind Pressure Humidity
    00:00 +12°C° 0 mm 7 mps 720 mmHg 71%
    01:00 +12°C° 0 mm 7 mps 720 mmHg 74%
    02:00 +12°C° 0 mm 5 mps 720 mmHg 77%
    03:00 +11°C° 0 mm 4 mps 720 mmHg 81%
    04:00 +11°C° 0 mm 3 mps 721 mmHg 84%
    05:00 +13°C° 0 mm 2 mps 721 mmHg 80%
    06:00 +14°C° 0 mm 2 mps 721 mmHg 76%
    07:00 +15°C° 0 mm 2 mps 722 mmHg 72%
    08:00 +17°C° 0 mm 2 mps 722 mmHg 66%
    09:00 +19°C° 0 mm 2 mps 722 mmHg 59%
    10:00 +21°C° 0 mm 3 mps 723 mmHg 53%
    11:00 +22°C° 0 mm 4 mps 722 mmHg 49%
    12:00 +23°C° 0 mm 5 mps 722 mmHg 46%
    13:00 +24°C° 0 mm 6 mps 722 mmHg 43%
    14:00 +24°C° 0 mm 6 mps 722 mmHg 43%
    15:00 +24°C° 0 mm 6 mps 721 mmHg 43%
    16:00 +24°C° 0 mm 7 mps 721 mmHg 43%
    17:00 +23°C° 0 mm 7 mps 721 mmHg 47%
    18:00 +21°C° 0 mm 7 mps 721 mmHg 51%
    19:00 +18°C° 0 mm 7 mps 720 mmHg 55%
    20:00 +19°C° 0 mm 6 mps 721 mmHg 57%
    21:00 +17°C° 0 mm 6 mps 721 mmHg 59%
    22:00 +16°C° 0 mm 6 mps 721 mmHg 60%
    23:00 +16°C° 0 mm 6 mps 721 mmHg 61%

    26 April, Friday

    Time Temperature Precipitation Wind Pressure Humidity
    00:00 +16°C° 0 mm 6 mps 721 mmHg 61%
    01:00 +15°C° 0 mm 6 mps 721 mmHg 61%
    02:00 +15°C° 0 mm 6 mps 721 mmHg 62%
    03:00 +15°C° 0 mm 6 mps 720 mmHg 62%
    04:00 +15°C° 0 mm 5 mps 720 mmHg 63%
    05:00 +15°C° 0 mm 5 mps 720 mmHg 62%
    06:00 +16°C° 0 mm 5 mps 720 mmHg 60%
    07:00 +17°C° 0 mm 5 mps 721 mmHg 59%
    08:00 +20°C° 0 mm 6 mps 721 mmHg 54%
    09:00 +21°C° 0 mm 6 mps 721 mmHg 49%
    10:00 +23°C° 0 mm 6 mps 721 mmHg 44%
    11:00 +24°C° 0 mm 7 mps 721 mmHg 41%
    12:00 +26°C° 0 mm 7 mps 720 mmHg 39%
    13:00 +26°C° 0 mm 7 mps 720 mmHg 36%
    14:00 +26°C° 0 mm 7 mps 720 mmHg 37%
    15:00 +26°C° 0 mm 6 mps 719 mmHg 38%
    16:00 +26°C° 0 mm 6 mps 719 mmHg 39%
    17:00 +23°C° 0 mm 6 mps 718 mmHg 43%
    18:00 +21°C° 0 mm 5 mps 718 mmHg 47%
    19:00 +19°C° 0 mm 5 mps 718 mmHg 51%
    20:00 +17°C° 0.1 mm 5 mps 719 mmHg 55%
    21:00 +18°C° 0.1 mm 4 mps 719 mmHg 59%
    22:00 +17°C° 0.1 mm 4 mps 720 mmHg 64%
    23:00 +16°C° 0.2 mm 3 mps 720 mmHg 70%

    27 April, Saturday

    Time Temperature Precipitation Wind Pressure Humidity
    00:00 +13°C° 0.2 mm 3 mps 720 mmHg 75%
    01:00 +13°C° 0.2 mm 2 mps 720 mmHg 81%
    02:00 +11°C° 0.6 mm 3 mps 720 mmHg 81%
    03:00 +10°C° 0.6 mm 3 mps 721 mmHg 81%
    04:00 +8°C° 0.6 mm 4 mps 721 mmHg 80%
    05:00 +8°C° 0.2 mm 4 mps 721 mmHg 80%
    06:00 +9°C° 0.2 mm 3 mps 721 mmHg 79%
    07:00 +8°C° 0.2 mm 3 mps 721 mmHg 78%
    08:00 +9°C° 0.3 mm 3 mps 722 mmHg 77%
    09:00 +9°C° 0.3 mm 2 mps 722 mmHg 77%
    10:00 +10°C° 0.3 mm 2 mps 722 mmHg 77%
    11:00 +12°C° 0.3 mm 2 mps 722 mmHg 74%
    12:00 +13°C° 0.3 mm 2 mps 722 mmHg 71%
    13:00 +14°C° 0.3 mm 2 mps 723 mmHg 67%
    14:00 +13°C° 0.1 mm 3 mps 723 mmHg 62%
    15:00 +14°C° 0.1 mm 4 mps 723 mmHg 56%
    16:00 +15°C° 0.1 mm 4 mps 723 mmHg 50%
    17:00 +13°C° 0 mm 4 mps 723 mmHg 56%
    18:00 +11°C° 0 mm 3 mps 723 mmHg 62%
    19:00 +10°C° 0 mm 2 mps 723 mmHg 68%
    20:00 +9°C° 0 mm 2 mps 723 mmHg 71%
    21:00 +8°C° 0 mm 2 mps 723 mmHg 73%
    22:00 +8°C° 0 mm 1 mps 724 mmHg 75%
    23:00 +8°C° 0 mm 1 mps 724 mmHg 75%

    28 April, Sunday

    Time Temperature Precipitation Wind Pressure Humidity
    00:00 +8°C° 0 mm 1 mps 723 mmHg 74%
    01:00 +8°C° 0 mm 1 mps 723 mmHg 74%
    02:00 +8°C° 0 mm 1 mps 723 mmHg 74%
    03:00 +8°C° 0 mm 1 mps 723 mmHg 73%
    04:00 +8°C° 0 mm 1 mps 723 mmHg 73%
    05:00 +9°C° 0 mm 1 mps 724 mmHg 72%
    06:00 +9°C° 0 mm 0 mps 724 mmHg 71%
    07:00 +10°C° 0 mm 0 mps 724 mmHg 71%
    08:00 +11°C° 0.1 mm 1 mps 724 mmHg 68%
    09:00 +12°C° 0.1 mm 1 mps 724 mmHg 65%
    10:00 +13°C° 0.1 mm 2 mps 724 mmHg 62%
    11:00 +14°C° 0.3 mm 2 mps 724 mmHg 60%
    12:00 +14°C° 0.3 mm 2 mps 724 mmHg 59%
    13:00 +14°C° 0.3 mm 3 mps 723 mmHg 58%
    14:00 +14°C° 0.3 mm 3 mps 723 mmHg 58%
    15:00 +14°C° 0.3 mm 3 mps 723 mmHg 57%
    16:00 +14°C° 0.3 mm 3 mps 723 mmHg 57%
    17:00 +13°C° 0.1 mm 3 mps 723 mmHg 62%
    18:00 +12°C° 0.1 mm 3 mps 723 mmHg 67%
    19:00 +10°C° 0.1 mm 3 mps 723 mmHg 72%
    20:00 +10°C° 0 mm 3 mps 723 mmHg 73%
    21:00 +9°C° 0 mm 3 mps 724 mmHg 75%
    22:00 +8°C° 0 mm 4 mps 724 mmHg 76%
    23:00 +8°C° 0 mm 4 mps 724 mmHg 75%
    Show more